KB1WCR Weather Reports


Display with metric or nautical units.
time (UTC)temp
F
wind
direction
speed
MPH
gust
MPH
rain 1hr
in
rain 24hr
in
rain mn
in
humidity
%
barometer
mb
20260507060419 49 344 0.0 0.0 0.00 0.05 0.05 99 1005.1
20260507055916 50 324 1.0 1.0 0.00 0.05 0.05 99 1005.2
20260507055411 50 307 1.0 2.0 0.00 0.05 0.05 99 1005.1
20260507054908 50 307 1.0 1.0 0.00 0.05 0.05 99 1005.1
20260507054404 50 282 0.0 1.0 0.00 0.05 0.05 99 1005.3
20260507053901 50 292 0.0 0.0 0.00 0.05 0.05 99 1005.3
20260507053359 50 282 1.0 2.0 0.00 0.05 0.05 99 1005.2
20260507052858 51 346 0.0 0.0 0.00 0.05 0.05 99 1005.0
20260507052354 51 278 0.0 0.0 0.00 0.05 0.05 99 1005.2
20260507051852 51 42 0.0 0.0 0.00 0.05 0.05 99 1005.2
20260507051349 51 287 1.0 1.0 0.00 0.05 0.05 99 1005.2
20260507050845 51 40 0.0 0.0 0.00 0.05 0.05 99 1004.9
20260507050342 51 277 0.0 0.0 0.00 0.05 0.05 99 1004.8
20260507045833 51 305 2.0 2.0 0.00 0.05 0.05 99 1004.8
20260507045330 53 28 3.0 4.0 0.00 0.05 0.05 99 1004.9
20260507044827 54 54 3.0 3.0 0.00 0.05 0.05 99 1004.6
20260507044324 54 326 1.0 1.0 0.00 0.05 0.05 99 1004.5
20260507043820 55 341 4.0 7.0 0.00 0.05 0.05 99 1004.4
20260507043316 56 302 2.0 2.0 0.00 0.05 0.05 99 1004.6
20260507042813 56 247 1.0 1.0 0.00 0.05 0.05 99 1004.4
20260507042309 56 272 1.0 1.0 0.07 0.05 0.05 99 1004.5
20260507041806 56 269 1.0 2.0 0.12 0.05 0.05 99 1004.2
20260507041302 56 269 1.0 2.0 0.19 0.04 0.04 99 1004.2
20260507040800 56 282 0.0 1.0 0.26 0.03 0.03 99 1004.2
20260507040255 56 283 0.0 0.0 0.17 0.01 0.01 99 1004.3
20260507035751 55 255 0.0 0.0 0.05 0.36 0.36 99 1004.4
20260507035247 55 282 0.0 0.0 0.05 0.36 0.36 99 1004.4
20260507034745 55 285 0.0 0.0 0.00 0.35 0.35 99 1004.4
20260507034241 55 279 0.0 0.0 0.00 0.35 0.35 99 1004.0
20260507033740 55 279 0.0 0.0 0.00 0.35 0.35 99 1004.0
20260507033237 55 292 0.0 0.0 0.00 0.35 0.35 99 1003.9
20260507032734 55 298 0.0 0.0 0.00 0.35 0.35 99 1003.9
20260507032230 55 288 0.0 0.0 0.00 0.35 0.35 99 1003.8
20260507031727 55 306 0.0 0.0 0.00 0.35 0.35 99 1003.7
20260507031223 55 294 0.0 0.0 0.00 0.35 0.35 99 1003.7
20260507030720 55 287 0.0 0.0 0.00 0.35 0.35 99 1003.7
20260507030218 55 279 0.0 0.0 0.00 0.35 0.35 99 1004.0
20260507025715 55 274 0.0 0.0 0.00 0.35 0.35 99 1004.0
20260507025212 55 232 2.0 2.0 0.07 0.35 0.35 99 1003.8
20260507024710 55 284 0.0 0.0 0.07 0.35 0.35 99 1003.9
20260507024207 55 303 0.0 0.0 0.00 0.34 0.34 99 1004.0
20260507023702 55 260 0.0 0.0 0.00 0.34 0.34 99 1003.8
20260507023200 55 278 0.0 0.0 0.00 0.34 0.34 99 1004.1
20260507022657 55 296 0.0 1.0 0.00 0.34 0.34 99 1004.2
20260507022152 55 233 1.0 1.0 0.00 0.34 0.34 99 1004.0
20260507021649 55 213 1.0 2.0 0.00 0.34 0.34 99 1004.2
20260507021144 55 262 1.0 1.0 0.00 0.34 0.34 99 1004.0
20260507020643 55 262 0.0 0.0 0.00 0.34 0.34 99 1004.2
20260507020139 55 271 0.0 1.0 0.00 0.34 0.34 99 1004.2
20260507015637 55 250 0.0 1.0 0.00 0.34 0.34 99 1004.2
20260507015134 55 248 1.0 1.0 0.00 0.34 0.34 99 1004.3
20260507014631 55 223 1.0 2.0 0.00 0.34 0.34 99 1004.1
20260507014127 55 235 1.0 1.0 0.00 0.34 0.34 99 1004.5
20260507013624 55 158 2.0 2.0 0.00 0.34 0.34 99 1004.4
20260507013121 55 211 2.0 3.0 0.00 0.34 0.34 99 1004.6
20260507012618 55 232 2.0 2.0 0.00 0.34 0.34 99 1004.5
20260507012113 55 225 1.0 1.0 0.00 0.34 0.34 99 1004.4
20260507011612 55 269 1.0 1.0 0.00 0.34 0.34 99 1004.5
20260507011108 55 223 1.0 2.0 0.05 0.34 0.34 99 1004.6
20260507010603 55 270 1.0 1.0 0.05 0.34 0.34 99 1004.6
20260507010059 55 207 4.0 6.0 0.00 0.33 0.33 99 1004.7
20260507005556 55 130 1.0 2.0 0.00 0.33 0.33 99 1004.5
20260507005052 55 261 0.0 0.0 0.00 0.33 0.33 99 1004.8
20260507004549 55 176 2.0 3.0 0.00 0.33 0.33 99 1004.7
20260507004047 55 92 3.0 3.0 0.00 0.33 0.33 99 1004.6
20260507003543 56 228 1.0 2.0 0.00 0.33 0.33 99 1004.5
20260507003038 56 170 2.0 2.0 0.00 0.33 0.33 99 1004.6
20260507002535 56 229 3.0 3.0 0.00 0.33 0.33 99 1004.6
20260507002030 56 160 3.0 3.0 0.00 0.33 0.33 99 1004.6
20260507001527 56 200 2.0 4.0 0.00 0.33 0.33 99 1004.6
20260507001020 56 140 0.0 1.0 0.00 0.33 0.33 99 1004.7
20260507000515 56 216 2.0 3.0 0.00 0.33 0.33 99 1004.7
20260507000011 56 31 1.0 2.0 0.00 0.33 0.33 99 1004.6
20260506235508 56 254 2.0 3.0 0.00 0.33 0.33 99 1004.8
20260506235004 56 213 2.0 3.0 0.00 0.33 0.33 99 1004.7
20260506234502 56 186 3.0 3.0 0.00 0.33 0.33 99 1004.7
20260506233959 56 187 4.0 4.0 0.00 0.33 0.33 99 1004.9
20260506233455 56 199 2.0 2.0 0.00 0.33 0.33 99 1004.6
20260506232951 56 287 2.0 3.0 0.00 0.33 0.33 99 1004.7
20260506232448 56 279 2.0 2.0 0.00 0.33 0.33 99 1004.7
20260506231944 56 199 6.0 8.0 0.00 0.33 0.33 99 1004.9
20260506231441 56 218 4.0 4.0 0.00 0.33 0.33 99 1004.5
20260506230938 56 155 3.0 6.0 0.00 0.33 0.33 99 1004.6
20260506230435 56 210 3.0 4.0 0.00 0.33 0.33 99 1004.7
20260506225932 56 202 2.0 3.0 0.00 0.33 0.33 99 1004.9
20260506225429 56 217 2.0 3.0 0.00 0.33 0.33 99 1005.0
20260506224926 56 194 1.0 2.0 0.00 0.33 0.33 99 1004.9
20260506224423 56 197 2.0 3.0 0.00 0.33 0.33 99 1005.1
20260506223919 56 192 2.0 3.0 0.00 0.33 0.33 99 1005.1
20260506223415 57 220 2.0 3.0 0.00 0.33 0.33 99 1005.0
20260506222912 57 203 5.0 7.0 0.00 0.33 0.33 99 1005.0
20260506222409 57 179 6.0 9.0 0.00 0.33 0.33 99 1005.0
20260506221906 57 288 1.0 1.0 0.00 0.33 0.33 99 1005.2
20260506221403 57 184 2.0 3.0 0.07 0.33 0.33 99 1005.4
20260506220901 57 132 2.0 2.0 0.07 0.33 0.33 99 1005.3
20260506220356 57 138 3.0 4.0 0.00 0.32 0.32 99 1005.1
20260506215853 57 207 3.0 6.0 0.00 0.32 0.32 99 1005.5
20260506215348 57 288 4.0 6.0 0.00 0.32 0.32 99 1005.4
20260506214844 57 242 2.0 2.0 0.00 0.32 0.32 99 1005.1
20260506214341 57 77 2.0 2.0 0.00 0.32 0.32 99 1005.3
20260506213840 57 209 2.0 4.0 0.00 0.32 0.32 99 1005.5
20260506213337 57 250 2.0 2.0 0.00 0.32 0.32 99 1005.4
20260506212834 57 151 2.0 3.0 0.05 0.32 0.32 99 1005.2
20260506212329 57 264 3.0 3.0 0.05 0.32 0.32 99 1005.5
20260506211825 57 228 2.0 4.0 0.00 0.31 0.31 99 1005.5
20260506211321 57 287 4.0 4.0 0.07 0.31 0.31 99 1005.7
20260506210819 57 80 2.0 2.0 0.12 0.31 0.31 99 1005.5
20260506210315 57 128 1.0 2.0 0.19 0.30 0.30 99 1005.7
20260506205813 57 188 2.0 2.0 0.31 0.30 0.30 99 1005.7
20260506205308 57 276 0.0 1.0 0.31 0.28 0.28 99 1005.7
20260506204805 57 199 2.0 3.0 0.17 0.25 0.25 99 1006.1
20260506204303 57 238 1.0 1.0 0.12 0.23 0.23 99 1005.8
20260506203800 57 238 0.0 1.0 0.12 0.22 0.22 99 1005.8
20260506203257 57 282 1.0 1.0 0.05 0.21 0.21 99 1005.8
20260506202754 57 232 1.0 1.0 0.00 0.20 0.20 99 1005.7
20260506202251 57 263 1.0 1.0 0.00 0.20 0.20 99 1005.7
20260506201747 57 227 2.0 3.0 0.00 0.20 0.20 99 1005.9
20260506201244 58 104 1.0 2.0 0.07 0.20 0.20 99 1006.0
20260506200742 58 178 2.0 2.0 0.07 0.20 0.20 99 1005.9
20260506200238 57 257 0.0 1.0 0.00 0.19 0.19 99 1005.8
20260506195735 57 275 0.0 0.0 0.00 0.19 0.19 99 1005.9
20260506195231 57 208 1.0 2.0 0.05 0.19 0.19 99 1005.9
20260506194728 57 313 0.0 0.0 0.31 0.19 0.19 99 1006.2
20260506194225 58 213 2.0 2.0 0.38 0.18 0.18 99 1006.4
20260506193723 58 106 1.0 1.0 0.24 0.14 0.14 99 1006.5
20260506193219 58 266 0.0 1.0 0.24 0.12 0.12 98 1006.4
20260506192715 58 248 1.0 1.0 0.19 0.11 0.11 98 1006.3
20260506192212 58 238 1.0 2.0 0.05 0.08 0.08 97 1006.3
20260506191709 58 219 3.0 3.0 0.00 0.07 0.07 97 1006.5
20260506191205 58 70 1.0 1.0 0.07 0.07 0.07 97 1006.4
20260506190702 58 200 2.0 4.0 0.19 0.07 0.07 96 1006.3
20260506190153 59 279 2.0 3.0 0.17 0.06 0.06 95 1006.8
20260506185651 59 253 2.0 3.0 0.12 0.04 0.04 94 1006.8
20260506185147 59 274 3.0 6.0 0.07 0.03 0.03 92 1006.6
20260506184645 60 253 4.0 6.0 0.07 0.02 0.02 90 1006.5
20260506184142 60 300 3.0 3.0 0.12 0.02 0.02 90 1006.4
20260506183638 60 94 3.0 4.0 0.05 0.01 0.01 88 1006.3
20260506183134 61 302 1.0 1.0 0.00 0.00 0.00 88 1006.3
20260506182632 61 203 4.0 6.0 0.00 0.00 0.00 86 1006.2
20260506182128 62 203 5.0 7.0 0.00 0.00 0.00 84 1006.4
20260506181626 62 217 3.0 4.0 0.00 0.00 0.00 81 1006.3
20260506181123 62 196 3.0 4.0 0.00 0.00 0.00 82 1006.2
20260506180620 62 187 5.0 7.0 0.00 0.00 0.00 80 1006.3
20260506180117 63 201 4.0 7.0 0.00 0.00 0.00 81 1006.2
20260506175613 63 150 4.0 4.0 0.00 0.00 0.00 80 1006.2
20260506175109 64 171 5.0 7.0 0.00 0.00 0.00 80 1006.1
20260506174608 64 284 2.0 4.0 0.00 0.00 0.00 81 1006.3
20260506174104 65 151 2.0 3.0 0.00 0.00 0.00 78 1006.3
20260506173602 65 135 4.0 13.0 0.00 0.00 0.00 79 1006.2
20260506173058 65 128 5.0 7.0 0.00 0.00 0.00 79 1006.3
20260506172555 64 179 5.0 7.0 0.00 0.00 0.00 80 1006.6
20260506172046 64 207 1.0 2.0 0.00 0.00 0.00 81 1006.5
20260506171543 64 29 2.0 3.0 0.00 0.00 0.00 81 1006.8
20260506171040 64 331 2.0 2.0 0.00 0.00 0.00 81 1006.8
20260506170538 64 164 1.0 2.0 0.00 0.00 0.00 83 1006.9
20260506170030 64 172 3.0 4.0 0.00 0.00 0.00 81 1007.1
20260506165528 64 177 3.0 3.0 0.00 0.00 0.00 81 1007.2
20260506165024 64 173 1.0 2.0 0.00 0.00 0.00 81 1007.1
20260506164521 64 241 2.0 2.0 0.00 0.00 0.00 81 1007.1
20260506164018 64 218 1.0 1.0 0.00 0.00 0.00 81 1007.2
20260506163514 64 321 2.0 2.0 0.00 0.00 0.00 81 1007.4
20260506163010 64 140 2.0 3.0 0.00 0.00 0.00 82 1007.7
20260506162507 64 138 2.0 3.0 0.00 0.00 0.00 82 1007.7
20260506162004 63 270 0.0 0.0 0.00 0.00 0.00 82 1007.8
20260506161501 63 167 2.0 3.0 0.00 0.00 0.00 82 1007.9
20260506160958 63 52 2.0 2.0 0.00 0.00 0.00 82 1008.2
20260506160456 63 154 2.0 3.0 0.00 0.00 0.00 83 1008.1
20260506155953 63 225 0.0 1.0 0.00 0.00 0.00 82 1008.4
20260506155451 63 152 0.0 1.0 0.00 0.00 0.00 83 1008.4
20260506153623 63 169 2.0 2.0 0.00 0.00 0.00 83 1008.3
20260506153121 63 262 0.0 0.0 0.00 0.00 0.00 83 1008.6
20260506152617 62 56 2.0 3.0 0.00 0.00 0.00 84 1008.3
20260506152115 62 235 1.0 2.0 0.00 0.00 0.00 84 1008.6
20260506151613 62 176 2.0 3.0 0.00 0.00 0.00 84 1008.6
20260506151109 62 233 1.0 2.0 0.00 0.00 0.00 84 1008.6
20260506150606 61 310 1.0 1.0 0.00 0.00 0.00 84 1008.2
20260506145600 61 71 1.0 1.0 0.00 0.00 0.00 84 1008.4
20260506145057 60 335 0.0 1.0 0.00 0.00 0.00 85 1008.3
20260506144554 60 314 0.0 1.0 0.00 0.00 0.00 84 1008.5
20260506144051 60 220 2.0 2.0 0.00 0.00 0.00 85 1008.1
20260506143549 60 231 2.0 2.0 0.00 0.00 0.00 84 1008.2
20260506143047 61 144 2.0 2.0 0.00 0.00 0.00 83 1008.2
20260506142544 61 277 0.0 0.0 0.00 0.00 0.00 85 1008.2
20260506142042 61 193 2.0 2.0 0.00 0.00 0.00 84 1008.3
20260506141540 61 228 1.0 2.0 0.00 0.00 0.00 84 1008.2
20260506141038 61 121 2.0 3.0 0.00 0.00 0.00 85 1008.2
20260506140535 61 85 3.0 4.0 0.00 0.00 0.00 84 1008.6
20260506140032 61 205 1.0 1.0 0.00 0.00 0.00 84 1008.8
20260506135529 61 59 2.0 2.0 0.00 0.00 0.00 84 1008.8
20260506135025 61 171 2.0 3.0 0.00 0.00 0.00 83 1008.7
20260506134522 61 140 1.0 1.0 0.00 0.00 0.00 84 1008.8
20260506134018 62 258 0.0 0.0 0.00 0.00 0.00 84 1008.5
20260506133515 61 267 0.0 1.0 0.00 0.00 0.00 84 1008.7
20260506133012 61 218 1.0 1.0 0.00 0.00 0.00 84 1008.8
20260506132509 61 161 0.0 1.0 0.00 0.00 0.00 85 1008.6
20260506132006 60 223 0.0 0.0 0.00 0.00 0.00 84 1008.6
20260506131503 61 235 1.0 1.0 0.00 0.00 0.00 84 1008.6
20260506130954 61 72 2.0 2.0 0.00 0.00 0.00 83 1008.6
20260506130451 61 255 1.0 1.0 0.00 0.00 0.00 83 1008.5
20260506125948 60 108 1.0 2.0 0.00 0.00 0.00 85 1008.8
20260506125447 60 188 0.0 1.0 0.00 0.00 0.00 84 1008.5
20260506124944 60 199 2.0 3.0 0.00 0.00 0.00 83 1008.7
20260506124442 61 282 2.0 2.0 0.00 0.00 0.00 84 1008.6
20260506123940 61 86 2.0 3.0 0.00 0.00 0.00 82 1008.7
20260506123438 60 235 1.0 2.0 0.00 0.00 0.00 84 1008.7
20260506122935 59 242 1.0 1.0 0.00 0.00 0.00 85 1008.7
20260506122431 59 240 0.0 1.0 0.00 0.00 0.00 86 1008.7
20260506121930 58 174 1.0 1.0 0.00 0.00 0.00 88 1008.7
20260506121426 58 225 1.0 2.0 0.00 0.00 0.00 86 1008.9
20260506120923 57 250 0.0 0.0 0.00 0.00 0.00 88 1008.9
20260506120421 57 294 0.0 0.0 0.00 0.00 0.00 89 1008.8
20260506115918 57 287 0.0 0.0 0.00 0.00 0.00 89 1009.1
20260506115416 57 332 0.0 0.0 0.00 0.00 0.00 89 1008.9
20260506114914 56 301 0.0 0.0 0.00 0.00 0.00 89 1009.0
20260506114411 56 22 1.0 1.0 0.00 0.00 0.00 89 1009.1
20260506113910 55 292 0.0 0.0 0.00 0.00 0.00 89 1008.9
20260506113407 55 251 0.0 0.0 0.00 0.00 0.00 90 1009.1
20260506112903 55 301 0.0 0.0 0.00 0.00 0.00 90 1009.4
20260506112401 55 284 0.0 0.0 0.00 0.00 0.00 90 1009.5
20260506111858 54 339 0.0 0.0 0.00 0.00 0.00 91 1009.3
20260506111356 54 311 1.0 1.0 0.00 0.00 0.00 90 1009.2
20260506110853 54 223 0.0 0.0 0.00 0.00 0.00 91 1009.7
20260506110350 54 286 0.0 0.0 0.00 0.00 0.00 91 1009.5
20260506105847 54 342 1.0 1.0 0.00 0.00 0.00 91 1009.5
20260506105343 53 281 0.0 0.0 0.00 0.00 0.00 92 1009.5
20260506104841 53 287 0.0 0.0 0.00 0.00 0.00 92 1009.4
20260506104339 53 285 0.0 0.0 0.00 0.00 0.00 92 1009.5
20260506103836 53 310 0.0 0.0 0.00 0.00 0.00 92 1009.3
20260506103334 53 292 0.0 0.0 0.00 0.00 0.00 92 1009.4
20260506102831 53 275 0.0 0.0 0.00 0.00 0.00 92 1009.1
20260506102329 52 296 0.0 0.0 0.00 0.00 0.00 93 1009.0
20260506101826 52 313 0.0 0.0 0.00 0.00 0.00 93 1008.9
20260506101321 52 229 0.0 0.0 0.00 0.00 0.00 92 1009.2
20260506100820 52 289 0.0 0.0 0.00 0.00 0.00 93 1009.3
20260506100318 51 294 0.0 0.0 0.00 0.00 0.00 94 1009.1
20260506095816 51 296 0.0 0.0 0.00 0.00 0.00 94 1008.9
20260506095313 51 287 0.0 0.0 0.00 0.00 0.00 94 1008.8
20260506094809 51 280 0.0 0.0 0.00 0.00 0.00 94 1009.1
20260506094308 51 290 0.0 0.0 0.00 0.00 0.00 94 1009.2
20260506093806 51 296 0.0 0.0 0.00 0.00 0.00 93 1008.9
20260506093302 51 316 0.0 0.0 0.00 0.00 0.00 93 1008.8
20260506092801 51 301 0.0 0.0 0.00 0.00 0.00 93 1009.0
20260506092258 52 302 0.0 0.0 0.00 0.00 0.00 92 1008.9
20260506091755 52 311 0.0 0.0 0.00 0.00 0.00 92 1009.1
20260506091253 52 294 0.0 0.0 0.00 0.00 0.00 92 1009.0
20260506090751 52 291 0.0 0.0 0.00 0.00 0.00 92 1009.0
20260506090247 52 298 0.0 0.0 0.00 0.00 0.00 92 1008.8
20260506085744 52 281 0.0 0.0 0.00 0.00 0.00 91 1008.7
20260506085240 52 289 0.0 0.0 0.00 0.00 0.00 91 1008.8
20260506084737 53 291 0.0 0.0 0.00 0.00 0.00 91 1008.8
20260506084233 53 291 0.0 0.0 0.00 0.00 0.00 90 1008.7
20260506083730 53 284 0.0 0.0 0.00 0.00 0.00 89 1008.5
20260506083228 54 278 0.0 0.0 0.00 0.00 0.00 89 1008.6
20260506082725 54 215 0.0 0.0 0.00 0.00 0.00 89 1008.8
20260506082221 54 279 0.0 0.0 0.00 0.00 0.00 89 1008.5
20260506081719 54 261 0.0 0.0 0.00 0.00 0.00 90 1008.4
20260506081216 53 8 1.0 2.0 0.00 0.00 0.00 90 1008.6
20260506080714 54 306 0.0 0.0 0.00 0.00 0.00 90 1008.7
20260506080210 54 275 0.0 0.0 0.00 0.00 0.00 89 1008.7
20260506073154 54 319 0.0 0.0 0.00 0.00 0.00 88 1008.7
20260506072650 55 285 0.0 0.0 0.00 0.00 0.00 88 1008.5
20260506072148 55 321 0.0 0.0 0.00 0.00 0.00 88 1008.4
20260506071646 55 300 0.0 0.0 0.00 0.00 0.00 87 1008.5
20260506071143 55 329 0.0 0.0 0.00 0.00 0.00 87 1008.4
20260506070640 55 31 0.0 0.0 0.00 0.00 0.00 87 1008.3
20260506070137 55 294 0.0 0.0 0.00 0.00 0.00 87 1008.2
20260506062114 53 260 0.0 0.0 0.00 0.00 0.00 91 1008.0
20260506061610 53 290 0.0 0.0 0.00 0.00 0.00 91 1007.9
20260506061108 53 314 0.0 0.0 0.00 0.00 0.00 91 1008.0